SL-3 DEB

Satellite information

Favourite Embed

Satellite Type and Status

DEBRISIN ORBIT

Key statistics

Satellite SL-3 DEB at a glance.

Uptime

15706

Days in orbit

Revolutions

≈ 14.2

Per day

Orbit

LEO

Low Earth Orbit

Inclination

81.3

Latest

Satellite identification and parameters

Extended collection of information and parameters for SL-3 DEB.

Object identification

Identified? True

Debris? True

Object name: SL-3 DEB

International designator: 1982-116H

Object number (NORAD): 35516

Object ID (CCSDS): 35516

Country: COMMONWEALTH OF INDEPENDENT STATES (CIS)

Current information (Y/N): Y

RCS size: SMALL

Orbital parameters

Period: 101.585 minutes

Inclination: 81.2535 deg

SMA: 7211.868 km

Apoapsis: 882.178 km

Periapsis: 785.289 km

RAAN: 168.4921 deg

Eccentricy: 0.00671733

Argument of periapsis: 51.4663 deg

Mean anomaly: 122.5058 deg

Mean motion: 14.17526211 rev/day

Mean motion (dot): 0.00000218 rev/day2

B* drag term: 0.000098806298 1/REarth

Two-line elements (TLE)

Creation date: Dec. 13, 2025, 5:47 p.m.

Reference frame: TEME

Reference center: EARTH

Epoch: Dec. 13, 2025, 6:12 a.m. UTC

TLE line 0: 0 SL-3 DEB

TLE line 1: 1 35516U 82116H 25347.25846105 .00000218 00000-0 98806-4 0 9996

TLE line 2: 2 35516 81.2535 168.4921 0067173 51.4663 122.5058 14.17526211633629

Live tracking on map

Real-time ground track for satellite SL-3 DEB.

In-orbit conjunctions

A list of the most updated potential collisions computed for object SL-3 DEB.

Target Orbit TCA Probability of collision Miss distance Type
NOAA 16 DEB SSO 2025-05-16 05:17:12 0.001137295 19.0 (m) DEBRIS
CZ-6A DEB SSO 2024-06-09 23:28:12 0.0002146949 118.0 (m) DEBRIS

Associated space launch

Second generation soviet meteorological satellite

SL-3 DEB was lifted into orbit during the mission ‘Vostok 8A92M | Meteor-2 9’, on board a Vostok 8A92M space rocket.

The launch took place on Dec. 14, 1982, 10:30 p.m. from 43/3 (43L).

For more information about the launch, click the button.

Launch to space Vostok 8A92M | Meteor-2 9
Vostok 8A92M | Meteor-2 9

Agency: N/A

Status: Launch Successful

Launch date: Dec. 14, 1982, 10:30 p.m. UTC

Rocket: Vostok 8A92M

Launch pad: 43/3 (43L)

Location: Plesetsk Cosmodrome, Russian Federation

...

Latest news about this satellite

There are no fresh news available about this satellite. Check back as we update our databases every day.


Newsletter sign-up

Weekly statistics, charts and insights to help you stay on top of the space industry.